EW9744 Weather Reports


time (UTC)temp
C
wind
direction
speed
KPH
gust
KPH
rain 1hr
cm
rain 24hr
cm
rain mn
cm
humidity
%
barometer
mb
20211017154529 8 292 3.2 0.0 0.00 0.00 0.00 88 1007.7
20211017153035 8 278 3.2 0.0 0.00 0.00 0.00 88 1008.0
20211017153033 8 278 3.2 6.4 0.00 0.00 0.00 88 1008.0
20211017151532 8 270 4.8 0.0 0.00 0.00 0.00 88 1008.0
20211017151529 8 238 4.8 8.0 0.00 0.00 0.00 88 1008.2
20211017150036 8 238 4.8 0.0 0.00 0.00 0.00 88 1008.0
20211017150034 8 238 4.8 8.0 0.00 0.00 0.00 88 1008.2
20211017144525 7 205 3.2 12.9 0.00 0.00 0.00 88 1008.1
20211017143042 7 248 4.8 0.0 0.00 0.00 0.00 89 1008.0
20211017143039 7 248 4.8 8.0 0.00 0.00 0.00 89 1008.2
20211017141543 7 259 3.2 8.0 0.00 0.00 0.00 89 1008.3
20211017140028 7 296 6.4 0.0 0.00 0.00 0.00 90 1008.4
20211017134530 7 292 4.8 8.0 0.00 0.00 0.00 88 1008.4
20211017133036 7 292 4.8 0.0 0.00 0.00 0.00 88 1008.4
20211017131525 7 280 3.2 8.0 0.00 0.00 0.00 88 1008.4
20211017130031 7 280 3.2 0.0 0.00 0.00 0.00 88 1008.4
20211017124531 7 274 6.4 0.0 0.00 0.00 0.00 89 1008.4
20211017124529 7 274 6.4 9.7 0.00 0.00 0.00 89 1008.4
20211017123031 7 284 8.0 0.0 0.00 0.00 0.00 89 1008.4
20211017121526 7 281 6.4 0.0 0.00 0.00 0.00 89 1008.7
20211017121523 7 281 6.4 9.7 0.00 0.00 0.00 89 1008.8
20211017120033 7 270 4.8 9.7 0.00 0.00 0.00 89 1009.0
20211017114528 7 271 6.4 0.0 0.00 0.00 0.00 89 1009.1
20211017113034 7 273 4.8 0.0 0.00 0.00 0.00 89 1009.1
20211017111530 7 280 8.0 0.0 0.00 0.00 0.00 89 1009.4
20211017110033 7 272 8.0 11.3 0.00 0.00 0.00 89 1009.6
20211017104528 7 283 4.8 0.0 0.00 0.00 0.00 88 1009.8
20211017104526 7 283 4.8 11.3 0.00 0.00 0.00 88 1009.8
20211017103034 7 304 4.8 0.0 0.00 0.00 0.00 88 1009.8
20211017103032 7 304 4.8 8.0 0.00 0.00 0.00 88 1010.0
20211017101541 7 290 6.4 0.0 0.00 0.00 0.00 88 1010.1
20211017100039 7 283 6.4 11.3 0.00 0.00 0.00 88 1010.5
20211017094525 7 290 4.8 0.0 0.00 0.00 0.00 88 1010.5
20211017094523 7 285 6.4 9.7 0.00 0.00 0.00 89 1010.8
20211017093034 7 285 6.4 0.0 0.00 0.00 0.00 89 1010.5
20211017093032 7 285 6.4 9.7 0.00 0.00 0.00 89 1010.8
20211017091536 7 292 3.2 0.0 0.00 0.00 0.00 90 1010.9
20211017091533 7 292 4.8 8.0 0.00 0.00 0.00 89 1011.0
20211017090045 7 292 4.8 0.0 0.00 0.00 0.00 89 1010.9
20211017084528 7 292 4.8 0.0 0.00 0.00 0.00 89 1010.9
20211017083037 7 292 6.4 0.0 0.00 0.00 0.00 89 1011.2
20211017081530 7 287 4.8 0.0 0.00 0.00 0.00 89 1011.2
20211017080050 7 274 6.4 0.0 0.00 0.00 0.00 88 1011.6
20211017074530 8 280 4.8 0.0 0.00 0.00 0.00 88 1011.6
20211017073034 8 278 6.4 0.0 0.00 0.00 0.00 87 1011.6
20211017073032 8 278 6.4 8.0 0.00 0.00 0.00 87 1011.9
20211017071526 8 274 6.4 0.0 0.00 0.00 0.00 86 1011.9
20211017070047 8 276 3.2 0.0 0.00 0.00 0.00 86 1011.9
20211017070045 8 276 3.2 6.4 0.00 0.00 0.00 86 1012.2
20211017064542 8 274 1.6 0.0 0.00 0.00 0.00 86 1012.3
20211017063040 8 288 6.4 0.0 0.00 0.00 0.00 86 1012.3
20211017063038 8 288 6.4 11.3 0.00 0.00 0.00 86 1012.5
20211017061526 8 289 8.0 0.0 0.00 0.00 0.00 86 1012.6
20211017061524 8 289 8.0 11.3 0.00 0.00 0.00 86 1012.7
20211017060039 8 283 8.0 0.0 0.00 0.00 0.00 86 1012.6
20211017054537 8 281 8.0 0.0 0.00 0.00 0.00 86 1012.6
20211017053027 8 270 8.0 11.3 0.00 0.00 0.00 85 1012.7
20211017051530 8 285 6.4 9.7 0.00 0.00 0.00 85 1012.8
20211017051528 8 285 6.4 0.0 0.00 0.00 0.00 85 1012.6
20211017050037 8 292 4.8 0.0 0.00 0.00 0.00 85 1012.6
20211017050032 8 292 4.8 8.0 0.00 0.00 0.00 85 1012.9
20211017044529 9 292 6.4 8.0 0.00 0.00 0.00 85 1013.0
20211017043041 9 303 6.4 8.0 0.00 0.00 0.00 84 1013.1
20211017041529 9 313 6.4 9.7 0.00 0.00 0.00 83 1013.2
20211017040048 10 297 4.8 0.0 0.00 0.00 0.00 82 1013.0
20211017040046 10 297 4.8 9.7 0.00 0.00 0.00 82 1013.3
20211017034526 10 308 6.4 0.0 0.00 0.00 0.00 81 1013.4
20211017033044 10 300 6.4 0.0 0.00 0.00 0.00 81 1013.4
20211017033042 10 300 6.4 9.7 0.00 0.00 0.00 81 1013.5
20211017031529 10 290 8.0 0.0 0.00 0.00 0.00 80 1013.7
20211017031527 10 290 8.0 9.7 0.00 0.00 0.00 80 1013.7
20211017030037 11 293 4.8 8.0 0.00 0.00 0.00 79 1013.8
20211017024536 11 293 6.4 0.0 0.00 0.00 0.00 78 1013.7
20211017023041 11 282 8.0 0.0 0.00 0.00 0.00 77 1014.1
20211017021526 11 284 6.4 0.0 0.00 0.00 0.00 76 1014.1
20211017020038 12 282 8.0 0.0 0.00 0.00 0.00 75 1014.1
20211017020036 12 282 8.0 11.3 0.00 0.00 0.00 75 1014.2
20211017014530 12 279 9.7 14.5 0.00 0.00 0.00 74 1014.3
20211017013038 12 275 9.7 16.1 0.00 0.00 0.00 73 1014.4
20211017011531 13 277 8.0 0.0 0.00 0.00 0.00 72 1014.4
20211017011529 13 277 8.0 12.9 0.00 0.00 0.00 72 1014.6
20211017010046 14 285 6.4 0.0 0.00 0.00 0.00 68 1014.8
20211017010043 14 285 6.4 8.0 0.00 0.00 0.00 68 1014.7
20211017004532 16 279 4.8 0.0 0.00 0.00 0.00 62 1014.8
20211017004530 18 315 1.6 3.2 0.00 0.00 0.00 56 1015.1
20211017003040 18 315 1.6 0.0 0.00 0.00 0.00 56 1015.1
20211017003038 18 315 1.6 3.2 0.00 0.00 0.00 56 1015.1
20211017001527 20 324 0.0 0.0 0.00 0.00 0.00 54 1015.1
20211017001525 20 112 0.0 1.6 0.00 0.00 0.00 52 1015.5
20211017000037 20 112 0.0 1.6 0.00 0.00 0.00 52 1015.5
20211016234530 20 112 1.6 0.0 0.00 0.00 0.00 49 1015.5
20211016234528 20 106 1.6 8.0 0.00 0.00 0.00 48 1015.9
20211016233037 20 106 1.6 0.0 0.00 0.00 0.00 48 1015.8
20211016231527 20 71 0.0 4.8 0.00 0.00 0.00 49 1016.2
20211016230038 20 78 1.6 6.4 0.00 0.00 0.00 49 1016.4
20211016224527 21 105 3.2 0.0 0.00 0.00 0.00 49 1016.5
20211016224525 21 105 3.2 8.0 0.00 0.00 0.00 49 1016.6
20211016223033 20 86 3.2 9.7 0.00 0.00 0.00 49 1016.8
20211016221525 20 98 3.2 0.0 0.00 0.00 0.00 51 1016.9
20211016220052 20 91 4.8 0.0 0.00 0.00 0.00 51 1017.3
20211016214528 19 87 3.2 11.3 0.00 0.00 0.00 51 1017.5
20211016213040 18 78 3.2 0.0 0.00 0.00 0.00 53 1017.6
20211016211531 17 53 4.8 0.0 0.00 0.00 0.00 54 1017.6
20211016211528 17 44 4.8 11.3 0.00 0.00 0.00 55 1018.2
20211016210032 17 44 4.8 0.0 0.00 0.00 0.00 55 1018.0
20211016204532 17 39 4.8 0.0 0.00 0.00 0.00 57 1018.3
20211016203030 16 67 3.2 0.0 0.00 0.00 0.00 57 1018.7
20211016201537 16 58 4.8 0.0 0.00 0.00 0.00 58 1018.7
20211016201533 16 58 4.8 12.9 0.00 0.00 0.00 58 1018.9
20211016200033 16 63 4.8 0.0 0.00 0.00 0.00 59 1019.0
20211016200031 16 63 4.8 12.9 0.00 0.00 0.00 59 1019.2
20211016194526 17 87 4.8 0.0 0.00 0.00 0.00 59 1019.4
20211016193029 17 113 3.2 0.0 0.00 0.00 0.00 60 1019.4
20211016191529 16 123 1.6 0.0 0.00 0.00 0.00 61 1019.8
20211016190044 17 114 1.6 0.0 0.00 0.00 0.00 62 1019.8
20211016190042 17 114 1.6 6.4 0.00 0.00 0.00 62 1020.0
20211016184529 16 112 3.2 0.0 0.00 0.00 0.00 66 1020.1
20211016184527 15 116 1.6 6.4 0.00 0.00 0.00 69 1020.2
20211016183029 15 116 1.6 0.0 0.00 0.00 0.00 69 1020.1
20211016181536 13 137 1.6 0.0 0.00 0.00 0.00 74 1020.1
20211016181534 12 115 1.6 6.4 0.00 0.00 0.00 79 1020.5
20211016180033 12 115 1.6 0.0 0.00 0.00 0.00 79 1020.5
20211016174525 11 103 1.6 6.4 0.00 0.00 0.00 82 1020.5
20211016173040 10 95 3.2 0.0 0.00 0.00 0.00 86 1020.5
20211016171530 10 18 3.2 0.0 0.00 0.00 0.00 88 1020.5
20211016170023 10 33 1.6 6.4 0.00 0.00 0.00 90 1020.7
20211016170021 10 33 1.6 0.0 0.00 0.00 0.00 90 1020.5
20211016164527 9 98 3.2 0.0 0.00 0.00 0.00 93 1020.5
20211016164525 8 135 1.6 6.4 0.00 0.00 0.00 96 1020.7
20211016163039 8 135 1.6 0.0 0.00 0.00 0.00 96 1020.5
20211016161526 7 135 0.0 0.0 0.00 0.00 0.00 97 1020.8
20211016161524 7 135 0.0 4.8 0.00 0.00 0.00 97 1020.8
20211016160038 7 135 0.0 0.0 0.00 0.00 0.00 98 1020.8